Regional Weather Roundup
Issued by NWS Jackson, KY

Home | Current Version | Previous Version | Text Only | Print | Product List | Glossary Off
Versions: 1 2 3 4 5 6 7 8 9 10 11 12 13 14 15 16 17 18 19 20 21 22 23 24 25 26 27 28 29 30 31 32 33 34 35 36 37 38 39 40 41 42 43 44 45 46 47 48 49 50

000
ASUS43 KJKL 011519
RWRJKL

EAST KENTUCKY HOURLY WEATHER ROUNDUP
NATIONAL WEATHER SERVICE JACKSON KY
1000 AM EST SUN FEB 01 2015

NOTE: "FAIR" INDICATES FEW OR NO CLOUDS BELOW 12,000 FEET WITH
NO SIGNIFICANT WEATHER AND/OR OBSTRUCTIONS TO VISIBILITY.

* THESE REPORTS ARE NOT UNDER NWS QUALITY CONTROL AND MAY NOT
  REPORT WEATHER SUCH AS PRECIPITATION AND FOG.

KYZ079-080-083-085-087-088-110-112-115-119-120-011600
...EASTERN KENTUCKY...

CITY           SKY/WX    TMP DP  RH WIND       PRES   REMARKS
JACKSON        CLOUDY    43  17  35 VRB3      30.05F
LONDON         CLOUDY    46  14  27 S7        30.05S
SOMERSET*      CLOUDY    43  19  39 S3        30.07R
MONTICELLO*    CLOUDY    48  23  37 S12       30.07S
MIDDLESBORO*   CLOUDY    43  15  32 CALM      30.11F
HARLAN APT*    CLOUDY    43  10  26 E5        30.08S
BLACK MTN*       N/A     39  19  45 W1          N/A
PIKEVILLE APT* MOSUNNY   39  21  48 CALM      30.06F
BIG SANDY*     CLOUDY    39  20  47 SE3       30.07F
MOREHEAD APT*  CLOUDY    41  14  33 VRB6      30.04F
ASHLAND*       PTSUNNY   39  23  52 SE8       30.05F WCI  34
$$

KYZ035-036-041-042-044-050-067-078-099-011600
...CENTRAL KENTUCKY...

CITY           SKY/WX    TMP DP  RH WIND       PRES   REMARKS
MT STERLING*   CLOUDY    41  19  42 S9        30.04F
FLEMING/MASON* CLOUDY    38  20  47 SE10      30.02F WCI  32
DANVILLE*      CLOUDY    43  21  42 S12       30.01F
RICHMOND*      CLOUDY    45  16  31 SE8       30.01F
LEXINGTON      CLOUDY    41  18  39 SE18G25   29.99F
FRANKFORT      CLOUDY    42  20  41 S10       29.96F
$$

KYZ091>093-OHZ055-061-077-WVZ005-015-034-035-042-011600
...SOUTHERN OHIO/WEST VIRGINIA...

CITY           SKY/WX    TMP DP  RH WIND       PRES   REMARKS
COVINGTON      CLOUDY    40  23  50 S10       29.97F WCI  33
COLUMBUS       FRZ RAIN  32  30  93 E10       30.03F FOG     WCI  24
DAYTON         CLOUDY    34  32  92 SE10      29.98F WCI  26
WILMINGTON     CLOUDY    33  30  88 SE14G24   29.98F WCI  23
HUNTINGTON     CLOUDY    36  20  52 E6        30.07F WCI  31
CHARLESTON     CLOUDY    34  22  61 NW3       30.10F
PINEVILLE*     CLOUDY    36  27  71 MISG      30.15F
BECKLEY        CLOUDY    36   9  32 E8        30.09F WCI  30
BLUEFIELD      CLOUDY    41   7  24 SE8       30.11S
$$

VAZ002-007-008-TNZ017-027-036-066-071-011600
...SOUTHWEST VIRGINIA/EAST TENNESSEE...

CITY           SKY/WX    TMP DP  RH WIND       PRES   REMARKS
WISE*          CLOUDY    43   7  22 S6        30.07F
JONESVILLE*    CLOUDY    37  19  48 CALM      30.12F
ABINGDON*      CLOUDY    44  12  27 E7        30.10S
BRISTOL        PTSUNNY   41  19  41 NE5       30.10F
KNOXVILLE      CLOUDY    39  24  55 NE3       30.12F
OAK RIDGE      PTSUNNY   41  20  43 CALM      30.14S
CROSSVILLE     CLOUDY    45  23  42 S13G22    30.07F
NASHVILLE      CLOUDY    47  34  60 S16       29.99F
$$

...KEY TO REMARKS...
VSB - VISIBILITY IN MILES
WCI - WIND CHILL INDEX
HX  - HEAT INDEX

$$


USA.gov is the U.S. government's official web portal to all federal, state and local government web resources and services.